Location: Sternwarte_Laufen
(47.9344°N, 12.9346°E)
Time: 15:15:27
(UTC+02:00)

ISS - Pass Details

Date: 27 March 2017
Orbit: 399 x 409 km, 51.6° (Epoch: 29 March)

Event Time Altitude Azimuth Distance (km) Brightness Sun altitude
Rises 21:48:42 0° 234° (SW) 2,306 0.3 -22.4°
Reaches altitude 10° 21:50:47 10° 230° (SW) 1,452 -0.8 -22.7°
Enters shadow 21:51:11 13° 228° (SW) 1,290 -1.1 -22.8°
